KUIPER-00077 (64824 NORAD) Tracking and Keplerian Element Data

This shows tracking and keplerian element data for the satellite.

Feedback or suggestion? Click here.




ElementValue
Catalog64824
NameKUIPER-00077
Epoch Orbit2354
Epoch Day354.01000649
Epoch Year2025
RAAN290.4318
Inclination51.9015
Eccentricity0.0006593
Argument of Perigee329.1507
Mean Anonmoly30.9067
Mean Motion14.79845779
Decay Rate-8.414E-05
L11 64824U 25151J 25354.01000649 -.00008414 00000+0 -10777-2 0 9999
L22 64824 51.9015 290.4318 0006593 329.1507 30.9067 14.79845779 23544



Live tracking and technical data element details for KUIPER-00077 (NORAD 64824). KUIPER-00077 can be tracked NOW for your location showing map with azimuth and elevation plus other details from your city location.







IsCatalogInMostPopularTable: catalog: 64824, numindb: 5
Update: records affected: 1



GetName: 64824 KUIPER-00077

Hit Count: updated at: Tue, 21 Apr 2026 21:30:43 GMT